EW1036 Weather Reports


Display with metric or nautical units.
time (UTC)temp
F
wind
direction
speed
MPH
gust
MPH
rain 1hr
in
rain 24hr
in
rain mn
in
humidity
%
barometer
mb
20260903060533 79 0 0.0 0.0 0.00 0.00 0.00 95 1016.5
20260903060049 79 0 0.0 0.0 0.00 0.00 0.00 95 1016.6
20260903055533 79 0 0.0 0.0 0.00 0.00 0.00 95 1016.6
20260903055032 79 0 0.0 0.0 0.00 0.00 0.00 95 1016.6
20260903054544 79 0 0.0 0.0 0.00 0.00 0.00 95 1016.7
20260903054032 79 0 0.0 0.0 0.00 0.00 0.00 95 1016.7
20260903053532 79 0 0.0 0.0 0.00 0.00 0.00 95 1016.8
20260903053055 79 0 0.0 0.0 0.00 0.00 0.00 95 1016.8
20260903052533 79 0 0.0 0.0 0.00 0.00 0.00 95 1016.9
20260903052035 79 0 0.0 0.0 0.00 0.00 0.00 95 1017.0
20260903051600 79 0 0.0 0.0 0.00 0.00 0.00 95 1016.9
20260903051036 79 0 0.0 0.0 0.00 0.00 0.00 95 1016.9
20260903050533 79 0 0.0 0.0 0.00 0.00 0.00 95 1016.8
20260903050055 79 0 0.0 0.0 0.00 0.00 0.00 95 1016.9
20260903045532 79 0 0.0 0.0 0.00 0.00 0.00 95 1017.0
20260903045032 79 0 0.0 0.0 0.00 0.00 0.00 95 1017.2
20260903044547 80 0 0.0 0.0 0.00 0.00 0.00 94 1017.2
20260903044033 80 0 0.0 0.0 0.00 0.00 0.00 95 1017.2
20260903043533 80 0 0.0 0.0 0.00 0.00 0.00 94 1017.2
20260903043047 80 0 0.0 0.0 0.00 0.00 0.00 95 1017.3
20260903042531 79 0 0.0 0.0 0.00 0.00 0.00 94 1017.3
20260903042034 79 0 0.0 0.0 0.00 0.00 0.00 94 1017.2
20260903041555 79 0 0.0 0.0 0.00 0.00 0.00 94 1017.3
20260903041032 80 0 0.0 0.0 0.00 0.00 0.00 94 1017.4
20260903040532 80 0 0.0 0.0 0.00 0.00 0.00 94 1017.3
20260903040054 80 0 0.0 0.0 0.00 0.00 0.00 94 1017.3
20260903035532 80 0 0.0 0.0 0.00 0.00 0.00 94 1017.4
20260903035032 80 0 0.0 0.0 0.00 0.00 0.00 94 1017.5
20260903034548 80 0 0.0 0.0 0.00 0.00 0.00 94 1017.5
20260903034034 80 0 0.0 0.0 0.00 0.00 0.00 94 1017.4
20260903033533 80 0 0.0 0.0 0.00 0.00 0.00 94 1017.3
20260903033044 80 0 0.0 0.0 0.00 0.00 0.00 93 1017.4
20260903032534 80 0 0.0 0.0 0.00 0.00 0.00 93 1017.4
20260903032033 80 0 0.0 0.0 0.00 0.00 0.00 93 1017.2
20260903031556 80 0 0.0 0.0 0.00 0.00 0.00 93 1017.1
20260903031032 80 0 0.0 0.0 0.00 0.00 0.00 93 1017.1
20260903030532 80 0 0.0 0.0 0.00 0.00 0.00 93 1017.1
20260903030054 80 0 0.0 0.0 0.00 0.00 0.00 93 1017.3
20260903025535 80 0 0.0 0.0 0.00 0.00 0.00 93 1017.2
20260903025032 80 0 0.0 0.0 0.00 0.00 0.00 93 1017.0
20260903024551 80 0 0.0 0.0 0.00 0.00 0.00 93 1017.2
20260903024031 80 0 0.0 0.0 0.00 0.00 0.00 93 1017.3
20260903023531 80 0 0.0 0.0 0.00 0.00 0.00 92 1017.3
20260903023056 80 0 0.0 0.0 0.00 0.00 0.00 92 1017.3
20260903022534 80 0 0.0 0.0 0.00 0.00 0.00 92 1017.5
20260903022031 81 0 0.0 0.0 0.00 0.00 0.00 92 1017.5
20260903021555 81 0 0.0 0.0 0.00 0.00 0.00 91 1017.5
20260903021033 81 0 0.0 0.0 0.00 0.00 0.00 91 1017.6
20260903020535 81 0 0.0 0.0 0.00 0.00 0.00 91 1017.5
20260903020053 81 0 0.0 0.0 0.00 0.00 0.00 91 1017.3
20260903015532 81 0 0.0 0.0 0.00 0.00 0.00 90 1017.0
20260903015033 81 0 0.0 0.0 0.00 0.00 0.00 89 1017.2
20260903014607 81 0 0.0 0.0 0.00 0.00 0.00 89 1017.0
20260903014033 81 0 0.0 0.0 0.00 0.00 0.00 89 1017.1
20260903013532 81 0 0.0 0.0 0.00 0.00 0.00 90 1017.3
20260903013056 81 0 0.0 0.0 0.00 0.00 0.00 90 1017.2
20260903012531 81 0 0.0 0.0 0.00 0.00 0.00 90 1017.2
20260903012031 81 0 0.0 0.0 0.00 0.00 0.00 90 1017.3
20260903011554 81 0 0.0 0.0 0.00 0.00 0.00 89 1017.3
20260903011032 82 0 0.0 0.0 0.00 0.00 0.00 88 1017.3
20260903010533 82 0 0.0 0.0 0.00 0.00 0.00 87 1017.2
20260903010054 81 0 0.0 0.0 0.00 0.00 0.00 87 1017.1
20260903005532 82 0 0.0 0.0 0.00 0.00 0.00 87 1017.2
20260903005032 82 0 0.0 0.0 0.00 0.00 0.00 86 1017.0
20260903004552 82 0 0.0 0.0 0.00 0.00 0.00 86 1016.6
20260903004033 81 0 0.0 0.0 0.00 0.00 0.00 86 1016.5
20260903003533 81 0 0.0 0.0 0.00 0.00 0.00 86 1016.6
20260903003047 82 0 0.0 0.0 0.00 0.00 0.00 86 1016.6
20260903002534 81 0 0.0 0.0 0.00 0.00 0.00 87 1016.7
20260903002033 82 0 0.0 0.0 0.00 0.00 0.00 87 1016.8
20260903001543 81 0 0.0 0.0 0.00 0.00 0.00 85 1016.9
20260903001033 81 0 0.0 0.0 0.00 0.00 0.00 88 1017.0
20260903000533 82 0 0.0 0.0 0.00 0.00 0.00 87 1017.1
20260903000057 82 0 0.0 0.0 0.00 0.00 0.00 87 1017.2
20260902235533 82 0 0.0 0.0 0.00 0.00 0.00 86 1017.3
20260902235033 82 0 0.0 0.0 0.00 0.00 0.00 86 1017.4
20260902234550 82 0 0.0 0.0 0.00 0.00 0.00 88 1017.4
20260902234033 82 0 0.0 0.0 0.00 0.00 0.00 87 1017.4
20260902233536 82 0 0.0 0.0 0.00 0.00 0.00 87 1017.6
20260902233049 83 0 0.0 0.0 0.00 0.00 0.00 88 1017.4
20260902232536 83 0 0.0 0.0 0.00 0.00 0.00 88 1017.3
20260902232034 83 0 0.0 0.0 0.00 0.00 0.00 87 1017.4
20260902231556 84 0 0.0 0.0 0.00 0.00 0.00 85 1017.3
20260902231037 84 0 0.0 0.0 0.00 0.00 0.00 86 1017.3
20260902230537 85 0 0.0 0.0 0.00 0.00 0.00 84 1017.1
20260902225533 85 0 0.0 0.0 0.00 0.00 0.00 82 1016.7
20260902225033 85 0 0.0 0.0 0.00 0.00 0.00 85 1016.3
20260902224552 85 0 0.0 0.0 0.00 0.00 0.00 83 1016.5
20260902224033 85 0 0.0 0.0 0.00 0.00 0.00 83 1016.5
20260902223534 86 0 0.0 0.0 0.00 0.00 0.00 82 1016.4
20260902223044 86 0 0.0 0.0 0.00 0.00 0.00 81 1016.4
20260902222534 86 0 0.0 0.0 0.00 0.00 0.00 79 1016.4
20260902222034 86 0 0.0 0.0 0.00 0.00 0.00 80 1016.3
20260902221558 87 0 0.0 0.0 0.00 0.00 0.00 80 1016.3
20260902221031 87 0 0.0 0.0 0.00 0.00 0.00 79 1016.5
20260902220533 87 0 0.0 0.0 0.00 0.00 0.00 79 1016.5
20260902220050 87 0 0.0 0.0 0.00 0.00 0.00 79 1016.5
20260902215533 87 0 0.0 0.0 0.00 0.00 0.00 81 1016.5
20260902215032 87 0 0.0 0.0 0.00 0.00 0.00 82 1016.5
20260902214555 87 0 0.0 0.0 0.00 0.00 0.00 80 1016.3
20260902214032 87 0 0.0 0.0 0.00 0.00 0.00 81 1016.5
20260902213531 87 0 0.0 0.0 0.00 0.00 0.00 80 1016.5
20260902213058 88 0 0.0 0.0 0.00 0.00 0.00 78 1016.4
20260902212533 88 0 0.0 0.0 0.00 0.00 0.00 79 1016.3
20260902212032 88 0 0.0 0.0 0.00 0.00 0.00 79 1016.3
20260902211556 89 0 0.0 0.0 0.00 0.00 0.00 77 1016.1
20260902211032 88 0 0.0 0.0 0.00 0.00 0.00 78 1016.0
20260902210533 88 0 0.0 0.0 0.00 0.00 0.00 82 1016.0
20260902210054 88 0 0.0 0.0 0.00 0.00 0.00 81 1015.9
20260902205531 88 0 0.0 0.0 0.00 0.00 0.00 81 1015.8
20260902205031 88 0 0.0 0.0 0.00 0.00 0.00 80 1015.8
20260902204554 87 0 0.0 0.0 0.00 0.00 0.00 82 1015.7
20260902204037 87 0 0.0 0.0 0.00 0.00 0.00 80 1015.6
20260902203534 87 0 0.0 0.0 0.00 0.00 0.00 80 1015.7
20260902203053 87 0 0.0 0.0 0.00 0.00 0.00 81 1015.7
20260902202533 87 0 0.0 0.0 0.00 0.00 0.00 81 1015.8
20260902202031 87 0 0.0 0.0 0.00 0.00 0.00 82 1015.8
20260902201553 87 0 0.0 0.0 0.00 0.00 0.00 80 1016.0
20260902201033 88 0 0.0 0.0 0.00 0.00 0.00 79 1016.3
20260902200533 88 0 0.0 0.0 0.00 0.00 0.00 80 1016.4
20260902200049 88 0 0.0 0.0 0.00 0.00 0.00 80 1016.5
20260902195532 88 0 0.0 0.0 0.00 0.00 0.00 80 1016.5
20260902195031 88 0 0.0 0.0 0.00 0.00 0.00 80 1016.5
20260902194557 88 0 0.0 0.0 0.00 0.00 0.00 78 1016.6
20260902194034 88 0 0.0 0.0 0.00 0.00 0.00 82 1016.5
20260902193534 89 0 0.0 0.0 0.00 0.00 0.00 76 1016.6
20260902193053 88 0 0.0 0.0 0.00 0.00 0.00 80 1016.7
20260902192533 88 0 0.0 0.0 0.00 0.00 0.00 78 1016.8
20260902192035 88 0 0.0 0.0 0.00 0.00 0.00 81 1016.8
20260902191602 88 0 0.0 0.0 0.00 0.00 0.00 81 1017.0
20260902191035 88 0 0.0 0.0 0.00 0.00 0.00 81 1017.0
20260902190533 88 0 0.0 0.0 0.00 0.00 0.00 81 1016.9
20260902190103 89 0 0.0 0.0 0.00 0.00 0.00 75 1016.9
20260902185535 89 0 0.0 0.0 0.00 0.00 0.00 77 1017.0
20260902185034 89 0 0.0 0.0 0.00 0.00 0.00 81 1016.9
20260902184618 89 0 0.0 0.0 0.00 0.00 0.00 80 1017.0
20260902184033 88 0 0.0 0.0 0.00 0.00 0.00 84 1017.1
20260902183535 88 0 0.0 0.0 0.00 0.00 0.00 83 1017.2
20260902183109 89 0 0.0 0.0 0.00 0.00 0.00 85 1017.2
20260902182533 89 0 0.0 0.0 0.00 0.00 0.00 81 1017.2
20260902182036 88 0 0.0 0.0 0.00 0.00 0.00 83 1017.2
20260902181553 88 0 0.0 0.0 0.00 0.00 0.00 80 1017.3
20260902181035 88 0 0.0 0.0 0.00 0.00 0.00 82 1017.4
20260902180533 89 0 0.0 0.0 0.00 0.00 0.00 81 1017.4
20260902180051 89 0 0.0 0.0 0.00 0.00 0.00 79 1017.4
20260902175533 89 0 0.0 0.0 0.00 0.00 0.00 81 1017.4
20260902175033 89 0 0.0 0.0 0.00 0.00 0.00 80 1017.4
20260902174553 89 0 0.0 0.0 0.00 0.00 0.00 81 1017.4
20260902174034 89 0 0.0 0.0 0.00 0.00 0.00 76 1017.4
20260902173533 90 0 0.0 0.0 0.00 0.00 0.00 75 1017.4
20260902173053 90 0 0.0 0.0 0.00 0.00 0.00 74 1017.4
20260902172534 90 0 0.0 0.0 0.00 0.00 0.00 76 1017.4
20260902172033 90 0 0.0 0.0 0.00 0.00 0.00 74 1017.4
20260902171601 89 0 0.0 0.0 0.00 0.00 0.00 78 1017.4
20260902171033 89 0 0.0 0.0 0.00 0.00 0.00 79 1017.5
20260902170534 90 0 0.0 0.0 0.00 0.00 0.00 78 1017.6
20260902170053 90 0 0.0 0.0 0.00 0.00 0.00 78 1017.6
20260902165533 89 0 0.0 0.0 0.00 0.00 0.00 75 1017.7
20260902165033 89 0 0.0 0.0 0.00 0.00 0.00 77 1017.7
20260902164549 89 0 0.0 0.0 0.00 0.00 0.00 78 1017.6
20260902164033 89 0 0.0 0.0 0.00 0.00 0.00 79 1017.6
20260902163534 89 0 0.0 0.0 0.00 0.00 0.00 79 1017.6
20260902163100 89 0 0.0 0.0 0.00 0.00 0.00 78 1017.6
20260902162532 88 0 0.0 0.0 0.00 0.00 0.00 78 1017.6
20260902162034 90 0 0.0 0.0 0.00 0.00 0.00 75 1017.7
20260902161556 89 0 0.0 0.0 0.00 0.00 0.00 78 1017.7
20260902161034 89 0 0.0 0.0 0.00 0.00 0.00 75 1017.9
20260902160533 89 0 0.0 0.0 0.00 0.00 0.00 81 1018.0
20260902160054 88 0 0.0 0.0 0.00 0.00 0.00 76 1018.0
20260902155533 89 0 0.0 0.0 0.00 0.00 0.00 77 1018.0
20260902155032 89 0 0.0 0.0 0.00 0.00 0.00 79 1017.9
20260902154549 89 0 0.0 0.0 0.00 0.00 0.00 79 1017.9
20260902154033 89 0 0.0 0.0 0.00 0.00 0.00 78 1018.0
20260902153533 88 0 0.0 0.0 0.00 0.00 0.00 77 1018.0
20260902153058 88 0 0.0 0.0 0.00 0.00 0.00 79 1018.0
20260902152536 88 0 0.0 0.0 0.00 0.00 0.00 81 1018.1
20260902152033 88 0 0.0 0.0 0.00 0.00 0.00 79 1018.1
20260902151558 88 0 0.0 0.0 0.00 0.00 0.00 79 1018.0
20260902151033 88 0 0.0 0.0 0.00 0.00 0.00 78 1018.1
20260902150532 87 0 0.0 0.0 0.00 0.00 0.00 82 1018.0
20260902150054 87 0 0.0 0.0 0.00 0.00 0.00 82 1018.0
20260902145533 87 0 0.0 0.0 0.00 0.00 0.00 79 1018.0
20260902145033 87 0 0.0 0.0 0.00 0.00 0.00 81 1018.0
20260902144552 86 0 0.0 0.0 0.00 0.00 0.00 83 1017.9
20260902144033 86 0 0.0 0.0 0.00 0.00 0.00 83 1017.9
20260902143533 84 0 0.0 0.0 0.00 0.00 0.00 85 1017.9
20260902143056 83 0 0.0 0.0 0.00 0.00 0.00 83 1017.9
20260902142534 84 0 0.0 0.0 0.00 0.00 0.00 83 1017.9
20260902142034 84 0 0.0 0.0 0.00 0.00 0.00 82 1017.8
20260902141547 83 0 0.0 0.0 0.00 0.00 0.00 86 1017.8
20260902141033 82 0 0.0 0.0 0.00 0.00 0.00 86 1017.9
20260902140533 82 0 0.0 0.0 0.00 0.00 0.00 89 1017.8
20260902140046 81 0 0.0 0.0 0.00 0.00 0.00 86 1017.8
20260902135536 82 0 0.0 0.0 0.00 0.00 0.00 85 1017.7
20260902135032 82 0 0.0 0.0 0.00 0.00 0.00 85 1017.7
20260902134604 82 0 0.0 0.0 0.00 0.00 0.00 84 1017.8
20260902134032 82 0 0.0 0.0 0.00 0.00 0.00 85 1017.8
20260902133533 83 0 0.0 0.0 0.00 0.00 0.00 89 1017.9
20260902133056 82 0 0.0 0.0 0.00 0.00 0.00 86 1018.0
20260902132533 81 0 0.0 0.0 0.00 0.00 0.00 87 1018.0
20260902132033 82 0 0.0 0.0 0.00 0.00 0.00 89 1018.1
20260902131550 80 0 0.0 0.0 0.00 0.00 0.00 88 1018.1
20260902131033 81 0 0.0 0.0 0.00 0.00 0.00 89 1018.1
20260902130533 81 0 0.0 0.0 0.00 0.00 0.00 89 1018.1
20260902130051 81 0 0.0 0.0 0.00 0.00 0.00 91 1018.1
20260902125532 80 0 0.0 0.0 0.00 0.00 0.00 92 1018.1
20260902125034 80 0 0.0 0.0 0.00 0.00 0.00 93 1018.2
20260902124556 79 0 0.0 0.0 0.00 0.00 0.00 96 1018.3
20260902124032 78 0 0.0 0.0 0.00 0.00 0.00 96 1018.4
20260902123532 78 0 0.0 0.0 0.00 0.00 0.00 96 1018.3
20260902123051 78 0 0.0 0.0 0.00 0.00 0.00 97 1018.4
20260902122533 78 0 0.0 0.0 0.00 0.00 0.00 96 1018.4
20260902122032 78 0 0.0 0.0 0.00 0.00 0.00 96 1018.3
20260902121548 78 0 0.0 0.0 0.00 0.00 0.00 96 1018.3
20260902121030 78 0 0.0 0.0 0.00 0.00 0.00 96 1018.3
20260902120533 77 0 0.0 0.0 0.00 0.00 0.00 96 1018.3
20260902120055 77 0 0.0 0.0 0.00 0.00 0.00 96 1018.2
20260902115535 77 0 0.0 0.0 0.00 0.00 0.00 96 1018.2
20260902115032 77 0 0.0 0.0 0.00 0.00 0.00 96 1018.1
20260902114558 77 0 0.0 0.0 0.00 0.00 0.00 96 1018.1
20260902114032 77 0 0.0 0.0 0.00 0.00 0.00 96 1018.1
20260902113532 77 0 0.0 0.0 0.00 0.00 0.00 96 1018.0
20260902113057 77 0 0.0 0.0 0.00 0.00 0.00 96 1018.1
20260902112533 77 0 0.0 0.0 0.00 0.00 0.00 96 1018.1
20260902112034 77 0 0.0 0.0 0.00 0.00 0.00 96 1018.1
20260902111548 77 0 0.0 0.0 0.00 0.00 0.00 96 1018.1
20260902111033 77 0 0.0 0.0 0.00 0.00 0.00 96 1018.0
20260902110535 77 0 0.0 0.0 0.00 0.00 0.00 96 1017.9
20260902110045 77 0 0.0 0.0 0.00 0.00 0.00 96 1017.8
20260902105532 77 0 0.0 0.0 0.00 0.00 0.00 96 1017.8
20260902105033 77 0 0.0 0.0 0.00 0.00 0.00 96 1017.8
20260902104557 77 0 0.0 0.0 0.00 0.00 0.00 96 1017.9
20260902104032 77 0 0.0 0.0 0.00 0.00 0.00 96 1017.8
20260902103532 77 0 0.0 0.0 0.00 0.00 0.00 96 1017.8
20260902103055 77 0 0.0 0.0 0.00 0.00 0.00 96 1017.8
20260902102533 77 0 0.0 0.0 0.00 0.00 0.00 96 1017.9
20260902102033 77 0 0.0 0.0 0.00 0.00 0.00 96 1017.8
20260902101554 77 0 0.0 0.0 0.00 0.00 0.00 96 1017.9
20260902101032 77 0 0.0 0.0 0.00 0.00 0.00 96 1017.9
20260902100532 77 0 0.0 0.0 0.00 0.00 0.00 96 1017.8
20260902100107 77 0 0.0 0.0 0.00 0.00 0.00 96 1017.8
20260902095533 77 0 0.0 0.0 0.00 0.00 0.00 96 1017.9
20260902095034 77 0 0.0 0.0 0.00 0.00 0.00 96 1017.8
20260902094553 77 0 0.0 0.0 0.00 0.00 0.00 96 1017.8
20260902094032 77 0 0.0 0.0 0.00 0.00 0.00 96 1017.7
20260902093533 77 0 0.0 0.0 0.00 0.00 0.00 96 1017.7
20260902093055 77 0 0.0 0.0 0.00 0.00 0.00 96 1017.8
20260902092533 77 0 0.0 0.0 0.00 0.00 0.00 96 1017.8
20260902092034 77 0 0.0 0.0 0.00 0.00 0.00 96 1017.8
20260902091607 77 0 0.0 0.0 0.00 0.00 0.00 96 1017.8
20260902091037 77 0 0.0 0.0 0.00 0.00 0.00 96 1017.7
20260902090533 77 0 0.0 0.0 0.00 0.00 0.00 96 1017.8
20260902090052 77 0 0.0 0.0 0.00 0.00 0.00 96 1017.7
20260902085534 77 0 0.0 0.0 0.00 0.00 0.00 96 1017.6
20260902085033 77 0 0.0 0.0 0.00 0.00 0.00 96 1017.6
20260902084600 77 0 0.0 0.0 0.00 0.00 0.00 96 1017.5
20260902084033 77 0 0.0 0.0 0.00 0.00 0.00 96 1017.6
20260902083532 77 0 0.0 0.0 0.00 0.00 0.00 96 1017.6
20260902083057 77 0 0.0 0.0 0.00 0.00 0.00 96 1017.6
20260902082533 77 0 0.0 0.0 0.00 0.00 0.00 96 1017.6
20260902082033 77 0 0.0 0.0 0.00 0.00 0.00 96 1017.6
20260902081556 77 0 0.0 0.0 0.00 0.00 0.00 96 1017.6
20260902081033 77 0 0.0 0.0 0.00 0.00 0.00 96 1017.5
20260902080534 77 0 0.0 0.0 0.00 0.00 0.00 96 1017.5
20260902080108 77 0 0.0 0.0 0.00 0.00 0.00 96 1017.5
20260902075533 77 0 0.0 0.0 0.00 0.00 0.00 96 1017.4
20260902075034 77 0 0.0 0.0 0.00 0.00 0.00 96 1017.4
20260902074550 77 0 0.0 0.0 0.00 0.00 0.00 96 1017.4
20260902074033 77 0 0.0 0.0 0.00 0.00 0.00 96 1017.4
20260902073534 77 0 0.0 0.0 0.00 0.00 0.00 96 1017.4
20260902073056 77 0 0.0 0.0 0.00 0.00 0.00 96 1017.5
20260902072535 77 0 0.0 0.0 0.00 0.00 0.00 96 1017.4
20260902072033 77 0 0.0 0.0 0.00 0.00 0.00 96 1017.5
20260902071614 77 0 0.0 0.0 0.00 0.00 0.00 96 1017.5
20260902071035 77 0 0.0 0.0 0.00 0.00 0.00 96 1017.6
20260902070532 77 0 0.0 0.0 0.00 0.00 0.00 96 1017.6
20260902070058 77 0 0.0 0.0 0.00 0.00 0.00 96 1017.6
20260902065533 77 0 0.0 0.0 0.00 0.00 0.00 96 1017.7
20260902065033 77 0 0.0 0.0 0.00 0.00 0.00 96 1017.7
20260902064552 77 0 0.0 0.0 0.00 0.00 0.00 96 1017.7
20260902064034 77 0 0.0 0.0 0.00 0.00 0.00 96 1017.8
20260902063534 77 0 0.0 0.0 0.00 0.00 0.00 96 1017.8
20260902063048 77 0 0.0 0.0 0.00 0.00 0.00 96 1017.9
20260902062533 78 0 0.0 0.0 0.00 0.00 0.00 96 1017.8
20260902062033 78 0 0.0 0.0 0.00 0.00 0.00 96 1017.9
20260902061604 78 0 0.0 0.0 0.00 0.00 0.00 96 1017.9
20260902061033 78 0 0.0 0.0 0.00 0.00 0.00 96 1017.9